Regional Weather Roundup
Issued by NWS

Home | Current Version | Previous Version | Graphics & Text | Print | Product List | Glossary On
Versions: 1 2 3 4 5 6 7 8 9 10 11 12 13 14 15 16 17 18 19 20 21 22 23 24 25 26 27 28 29 30 31 32 33 34 35 36 37 38 39 40 41 42 43 44 45 46 47 48 49 50
000
ASUS43 KFSD 042010
RWRSD

WEATHER ROUNDUP FOR SOUTH DAKOTA
NATIONAL WEATHER SERVICE SIOUX FALLS SD
300 PM CDT MON MAY 04 2015

NOTE: "FAIR" INDICATES FEW OR NO CLOUDS BELOW 12,000 FEET WITH NO
SIGNIFICANT WEATHER AND/OR OBSTRUCTIONS TO VISIBILITY.


SDZ001>005-009-010-012>017-042100-
NORTHWEST AND NORTH CENTRAL SOUTH DAKOTA

CITY           SKY/WX    TMP DP  RH WIND       PRES   REMARKS
BUFFALO          N/A     50  38  63 SE30G36   30.09F
FAITH            N/A     48  42  80 SW9       30.22F
MOBRIDGE       CLOUDY    65  25  22 SW6       30.18F
$$

SDZ012>016-024>037-041>051-057-063-072>074-042100-
SOUTHWEST AND SOUTH CENTRAL SOUTH DAKOTA

CITY           SKY/WX    TMP DP  RH WIND       PRES   REMARKS
RAPID CTY ARPT CLOUDY    52  38  58 S7        30.19F
PIERRE         CLOUDY    66  22  18 E7        30.18F
CUSTER         CLOUDY    41  30  65 VRB6      30.19F
ELLSWORTH AFB  CLOUDY    52  39  60 S9        30.18F
PHILIP         CLOUDY    62  27  26 E9        30.19F
PINE RIDGE     CLOUDY    54  34  46 E14       30.17F
SPEARFISH      FAIR      55  32  41 SE17G26   30.14F
WINNER         CLOUDY    70  19  14 E16       30.16F
$$

SDZ004>011-016>023-039-040-042100-
NORTHEAST SOUTH DAKOTA

CITY           SKY/WX    TMP DP  RH WIND       PRES   REMARKS
ABERDEEN       PTSUNNY   69  21  16 E9        30.19F
WATERTOWN      PTSUNNY   68  26  20 E12       30.18F
BROOKINGS      MOSUNNY   68  27  21 NE12G17   30.17F
SISSETON         N/A     69  25  19 E10G16    30.19F
$$

SDZ017-020-022-023-036>040-048>070-042100-
SOUTHEAST SOUTH DAKOTA

CITY           SKY/WX    TMP DP  RH WIND       PRES   REMARKS
SIOUX FALLS    CLOUDY    72  31  22 E12       30.15S
HURON          PTSUNNY   72  22  15 NE12      30.15F
CHAMBERLAIN    PTSUNNY   69  26  19 NE10      30.16F
MITCHELL       PTSUNNY   74  26  16 E10       30.14F
YANKTON        PTSUNNY   72  34  25 E14G21    30.12F
$$

ABBREVIATIONS USED IN REMARKS
   TC - TEMPERATURE IN CELSIUS
  WCI - WIND CHILL INDEX
   HX - HEAT INDEX
  VSB - VISIBILITY




USA.gov is the U.S. government's official web portal to all federal, state and local government web resources and services.